Find Starlink 3207

NORAD ID: 49756 Int'l Des: 2021-115 Owner: SPXS Country: US Constellation: starlink operational
LEOCIRCULAR

实时位置

正在加载3D地球...

关于 Starlink 3207

正在加载描述...

即将过境

Passes for default location (London). Set your location on the main map for personalized predictions.

高度历史

Loading altitude history...

两行轨道根数

1 49756U 21115AJ 26125.58730600 .00002298 00000-0 16242-3 0 9995
2 49756 53.2168 243.6979 0001220 87.9018 272.2114 15.08835429244268
Epoch: May 5, 2026 • Age: 21 hours

当前状态

高度 540.6 km
速度 7.59 km/s
星下点 0.21°N, 145.77°W
发射日期 Dec 2, 2021
运行时间 4.4 years
类型 internet

技术详情

分类 Payload
质量 290.00 kg
干质量 270.00 kg
总质量 290.00 kg
长度 0.20 m
直径 2.80 m
跨度 9.00 m
形状 Box + pan
制造商 SPXS
平台类型 Starlink
阶段状态 In Orbit
所有者/国家 SPXS/US

Most Searched